sat.trackr.live / text

‹ back to catalog

STARLINK-5385

NORAD 54821 · 2022-177B

PAYLOAD ACTIVE UNKNOWN

§ Identity

Operator
Country
US
Launch date
2022-12-28
Launch site
AFETR
Launch vehicle
Mass (kg)
RCS (m²)

Purposes: comms

External: N2YO · Heavens-Above · Gunter

§ Orbital elements

Epoch: 2026-05-25T04:31:10.831584Z

Period
94.27 min
Inclination
43.0040°
Eccentricity
0.0001311
Mean motion
15.27576948 rev/d
Perigee alt
482.2 km
Apogee alt
484.0 km
Semi-major
6,861.2 km
B*
3.5102e-5
RAAN
63.9694°
Arg perigee
265.4297°
Mean anomaly
94.6405°
Rev number
18,862

§ Raw data

STARLINK-53851 54821U 22177B   26145.18831981  .00000704  00000+0  35102-4 0  99912 54821  43.0040  63.9694 0001311 265.4297  94.6405 15.27576948188628

JSON: /api/v1/satellites/54821 · /tle

For live sub-satellite position, see the globe view (requires WebGL).

§ Visibility from observer

Set your observer location to see the next 7 days of passes ≥ 10°. The values pass through the URL so the page stays shareable.

No JS? Fill the form by hand. The geolocation button needs JavaScript.